Home > Time Zones > World Clock > Weather > Germany > Ulm > Past weeks

Flag for Germany Weather past 2 weeks in Ulm, Baden-Württemberg, Germany

Now
82 °F

Passing clouds.


Feels Like: 81 °F
Forecast: 61 / 82 °F
Wind: 7 mph from Southwest

Location: Laupheim Airport

Current Time: Aug 31, 2015 at 8:26:19 PM

Latest Report: Aug 31, 2015 at 7:20 PM


Visibility: N/A

Pressure: 29.95 "Hg

Humidity: 37%

Dew point: 54 °F

Location of UlmLocation

Historic Weather in Ulm — Graph

°F

Ulm temperature yesterday

Maximum temperature yesterday: 90 °F (at 3:20 PM)
Minimum temperature yesterday: 63 °F (at 5:20 AM)
Average temperature yesterday: 76 °F

Past Weeks' High & Low Weather Summary

 TemperatureHumidityPressure
High90 °F (Aug 30, 3:20 PM)100% (Aug 18, 3:20 AM)30.30 "Hg (Aug 18, 3:20 AM)
Low46 °F (Aug 26, 5:20 AM)24% (Aug 31, 5:20 PM)29.74 "Hg (Aug 24, 8:20 AM)
Average65 °F71%30.06 "Hg
* Reported Aug 16 6:20 PM — Aug 31 6:20 PM, Ulm, Weather by CustomWeather, © 2015

Note: Actual official high and low records may vary slightly from our data, if they occured in-between our weather recording intervals... More about our weather records

Advertising

Ulm weather history for previous 24 hours

 ConditionsComfort  
Time TempWeatherWind HumidityBarometerVisibility
6:20 PM
Mon, Aug 31
86 °FPassing clouds.7 mph24%29.95 "HgN/A
5:20 PM88 °FPassing clouds.9 mph24%29.95 "HgN/A
5:00 PM88 °FPassing clouds.9 mph25%29.95 "HgN/A
4:20 PM88 °FPassing clouds.9 mph31%29.98 "HgN/A
3:20 PM88 °FPassing clouds.9 mph31%29.98 "HgN/A
2:20 PM86 °FPassing clouds.7 mph38%30.01 "HgN/A
1:20 PM84 °FPassing clouds.6 mph35%30.01 "HgN/A
12:20 PM82 °FPassing clouds.2 mph40%30.04 "HgN/A
11:20 AM81 °FPassing clouds.5 mph45%30.04 "HgN/A
10:20 AM77 °FPassing clouds.10 mph54%30.07 "HgN/A
9:20 AM72 °FPassing clouds.8 mph65%30.07 "HgN/A
8:20 AM66 °FPassing clouds.8 mph78%30.07 "HgN/A
7:20 AM64 °FPassing clouds.5 mph78%30.07 "HgN/A
6:20 AM63 °FPassing clouds.5 mph83%30.07 "HgN/A
5:20 AM63 °FPassing clouds.5 mph83%30.07 "HgN/A
4:20 AM64 °FMild.2 mph78%30.04 "HgN/A
3:20 AM66 °FMild.2 mph73%30.04 "HgN/A
2:20 AM64 °FMild.2 mph83%30.07 "HgN/A
1:20 AM68 °FPassing clouds.3 mph73%30.07 "HgN/A
12:20 AM70 °FMild.3 mph69%30.09 "HgN/A
11:20 PM
Sun, Aug 30
72 °FMild.2 mph65%30.09 "HgN/A
10:20 PM73 °FMild.2 mph65%30.09 "HgN/A
9:20 PM77 °FPassing clouds.3 mph54%30.09 "HgN/A
8:20 PM81 °FPassing clouds.2 mph48%30.07 "HgN/A
Weather by CustomWeather, © 2015

See weather overviewHow to use our weather pages